THORAD DELTA 1 DEB, 8400

Orbit data source: Space-Track

THORAD DELTA 1 DEB, 8400 is space debris in SSO originally from a launch on Fri, 15 Nov 1974 UTC launched from the Air Force Western Test Range (AFWTR). Debris objects in space refer to the collection of defunct objects orbiting the Earth. Examples of debris include non-operational satellites, rocket bodies, and fragments generated from explosions, collisions, or faulty payload assembly.

Loading next visibility...
Identifier
8400, 1974-089CC
Orbit
SSO
Country
Flag of USUS
Related business
Manufacturer
Unknown
Mission
Spacecraft
Bus & Motor
Unknown
Mass
Unknown
Launch date (UTC)
1974-11-15 (51 years ago)
Launch vehicle
Unknown
Launch site
Air Force Western Test Range (AFWTR)
Object type
Payload
Rocket body
Debris
Shape & HBR
Unknown shape, 0.1 m
Radar Cross Section
Small (<0.1 m²)

Expand to show TLE details & history
Last TLE update: 10 hours ago

TLE from 10 hours ago
0 THORAD DELTA 1 DEB
1 08400U 74089CC  26123.44952992  .00000070  00000-0  79758-3 0  9994
2 08400 101.7891  88.2750 0048914 256.8358 226.2033 12.44948634339518
Epoch: 2026-05-03T10:47Z
TLE epoch observation values (Epoch: 2026-05-03T10:47:19.385Z)
Latitude
55.61604°
Longitude
-97.23998°
Altitude
1,521.454 km
Speed
7.098 km/s
True Right ascension
19h 03m 46s
True Declination
55° 28' 16"
Sunlit
Object was in daylight at epoch
Visualization orbit readout
Latitude
Unknown
Longitude
Unknown
Altitude
Unknown
Speed
Unknown
Apparent Right ascension
Unknown
Apparent Declination
Unknown
Sunlit
N/A
Visualization observer readout
Local Sidereal Time
04:18:38
Azimuth
Unknown
Elevation
Unknown
Doppler factor
Unknown
Orbital elements
Apogee altitude
1,521.704 km
Perigee altitude
1,444.797 km
Semi-major axis
7,861.388 km
Eccentricity
0.00489
Inclination
101.7891°
RAAN
88.275°
Arg. of periapsis
256.8358°
True anomaly
225.80043°
Mean anomaly
226.2033°
Eccentric anomaly
226.00169°
Mean motion
3.11383 °/min
Orbital period
115.61 mins
BSTAR
0.00079758
Loading maneuver chart data...
Computing Atmospheric mass density...

Documentation

Showing up to 5 results
|